Key statistics
Satellite CZ-6A DEB at a glance.
Uptime
873
Days in orbit
Revolutions
≈ 16.2
Per day
Orbit
SSO
Sun Synchronous Orbit
Inclination
99.0
Latest
Satellite identification and parameters
Extended collection of information and parameters for CZ-6A DEB.
Object identification
Identified? True
Debris? True
Object name: CZ-6A DEB
International designator: 2022-151FK
Object number (NORAD): 54435
Object ID (CCSDS): 54435
Country: PEOPLES REPUBLIC OF CHINA (PRC)
Current information (Y/N): Y
RCS size: SMALL
Orbital parameters
Decay date: April 2, 2025
Period: 88.712 minutes
Inclination: 98.9766 deg
SMA: 6588.918 km
Apoapsis: 219.507 km
Periapsis: 202.059 km
RAAN: 208.2315 deg
Eccentricy: 0.0013241
Argument of periapsis: 302.611 deg
Mean anomaly: 57.3896 deg
Mean motion: 16.23235751 rev/day
Mean motion (dot): 0.17696313 rev/day2
B* drag term: 0.0071573 1/REarth
Two-line elements (TLE)
Creation date: March 30, 2025, 5:21 p.m.
Reference frame: TEME
Reference center: EARTH
Epoch: March 30, 2025, 2:27 a.m. UTC
TLE line 0: 0 CZ-6A DEB
TLE line 1: 1 54435U 22151FK 25089.10251333 .17696313 34279-5 71573-2 0 9995
TLE line 2: 2 54435 98.9766 208.2315 0013241 302.6110 57.3896 16.23235751 54230
Live tracking on map
Satellite CZ-6A DEB has decayed and is no longer in orbit. No tracking available.
In-orbit conjunctions
Satellite CZ-6A DEB has decayed and is no longer in orbit. No conjunctions available.
Associated space launch
Chinese satellite reported for atmospheric/ocean/environmental/spatial parameter research purposes, details TBD.
CZ-6A DEB was lifted into orbit during the mission ‘Long March 6A | Yunhai 3’, on board a Long March 6A space rocket.
The launch took place on Nov. 11, 2022, 10:52 p.m. from Launch Complex 9A.
For more information about the launch, click the button.
Long March 6A | Yunhai 3
Agency: N/A
Status: Launch Successful
Launch date: Nov. 11, 2022, 10:52 p.m. UTC
Rocket: Long March 6A
Launch pad: Launch Complex 9A
Location: Taiyuan Satellite Launch Center, People's Republic of China
...
Latest news about this satellite
There are no fresh news available about this satellite. Check back as we update our databases every day.
Newsletter sign-up
Weekly statistics, charts and insights to help you stay on top of the space industry.
